sat.trackr.live / text

‹ back to catalog

STARLINK-31351

NORAD 58972 · 2024-031H

PAYLOAD ACTIVE UNKNOWN

§ Identity

Operator
Country
US
Launch date
2024-02-15
Launch site
AFWTR
Launch vehicle
Mass (kg)
RCS (m²)

Purposes: comms

External: N2YO · Heavens-Above · Gunter

§ Orbital elements

Epoch: 2026-05-25T04:04:25.080672Z

Period
94.11 min
Inclination
53.1617°
Eccentricity
0.0001331
Mean motion
15.30195822 rev/d
Perigee alt
474.3 km
Apogee alt
476.1 km
Semi-major
6,853.4 km
B*
4.4229e-5
RAAN
301.3775°
Arg perigee
85.4192°
Mean anomaly
274.6961°
Rev number
12,823

§ Raw data

STARLINK-313511 58972U 24031H   26145.16973473  .00000951  00000+0  44229-4 0  99982 58972  53.1617 301.3775 0001331  85.4192 274.6961 15.30195822128236

JSON: /api/v1/satellites/58972 · /tle

For live sub-satellite position, see the globe view (requires WebGL).

§ Visibility from observer

Set your observer location to see the next 7 days of passes ≥ 10°. The values pass through the URL so the page stays shareable.

No JS? Fill the form by hand. The geolocation button needs JavaScript.